Year,Month,Day,Hour,Minute,Value (Times are PST for temperature in C)
2015,05,10,00,00,15.90
2015,05,10,00,01,15.90
2015,05,10,00,02,15.90
2015,05,10,00,03,15.90
2015,05,10,00,04,15.90
2015,05,10,00,05,15.90
2015,05,10,00,06,16.00
2015,05,10,00,07,16.00
2015,05,10,00,08,16.00
2015,05,10,00,09,16.00
2015,05,10,00,10,16.10
2015,05,10,00,11,16.10
2015,05,10,00,12,16.10
2015,05,10,00,13,16.10
2015,05,10,00,14,16.00
2015,05,10,00,15,16.00
2015,05,10,00,16,15.90
2015,05,10,00,17,15.80
2015,05,10,00,18,15.80
2015,05,10,00,19,15.80
2015,05,10,00,20,15.80
2015,05,10,00,21,15.80
2015,05,10,00,22,15.80
2015,05,10,00,23,15.80
2015,05,10,00,24,15.80
2015,05,10,00,25,15.80
2015,05,10,00,26,15.80
2015,05,10,00,27,15.80
2015,05,10,00,28,15.80
2015,05,10,00,29,15.80
2015,05,10,00,30,15.80
2015,05,10,00,31,15.70
2015,05,10,00,32,15.70
2015,05,10,00,33,15.70
2015,05,10,00,34,15.70
2015,05,10,00,35,15.70
2015,05,10,00,36,15.60
2015,05,10,00,37,15.60
2015,05,10,00,38,15.60
2015,05,10,00,39,15.60
2015,05,10,00,40,15.50
2015,05,10,00,41,15.50
2015,05,10,00,42,15.40
2015,05,10,00,43,15.40
2015,05,10,00,44,15.40
2015,05,10,00,45,15.30
2015,05,10,00,46,15.30
2015,05,10,00,47,15.20
2015,05,10,00,48,15.10
2015,05,10,00,49,15.00
2015,05,10,00,50,15.00
2015,05,10,00,51,15.00
2015,05,10,00,52,15.00
2015,05,10,00,53,15.00
2015,05,10,00,54,15.00
2015,05,10,00,55,15.00
2015,05,10,00,56,15.00
2015,05,10,00,57,15.00
2015,05,10,00,58,15.00
2015,05,10,00,59,15.00
2015,05,10,01,00,15.00
2015,05,10,01,01,15.00
2015,05,10,01,02,15.00
2015,05,10,01,03,15.00
2015,05,10,01,04,15.00
2015,05,10,01,05,15.00
2015,05,10,01,06,15.00
2015,05,10,01,07,15.00
2015,05,10,01,08,15.00
2015,05,10,01,09,15.00
2015,05,10,01,10,15.00
2015,05,10,01,11,15.00
2015,05,10,01,12,15.00
2015,05,10,01,13,15.00
2015,05,10,01,14,15.00
2015,05,10,01,15,15.00
2015,05,10,01,16,14.90
2015,05,10,01,17,14.90
2015,05,10,01,18,14.80
2015,05,10,01,19,14.80
2015,05,10,01,20,14.80
2015,05,10,01,21,14.70
2015,05,10,01,22,14.70
2015,05,10,01,23,14.70
2015,05,10,01,24,14.70
2015,05,10,01,25,14.60
2015,05,10,01,26,14.60
2015,05,10,01,27,14.60
2015,05,10,01,28,14.60
2015,05,10,01,29,14.60
2015,05,10,01,30,14.60
2015,05,10,01,31,14.60
2015,05,10,01,32,14.60
2015,05,10,01,33,14.60
2015,05,10,01,34,14.50
2015,05,10,01,35,14.50
2015,05,10,01,36,14.50
2015,05,10,01,37,14.50
2015,05,10,01,38,14.50
2015,05,10,01,39,14.50
2015,05,10,01,40,14.40
2015,05,10,01,41,14.40
2015,05,10,01,42,14.40
2015,05,10,01,43,14.40
2015,05,10,01,44,14.40
2015,05,10,01,45,14.40
2015,05,10,01,46,14.40
2015,05,10,01,47,14.30
2015,05,10,01,48,14.30
2015,05,10,01,49,14.30
2015,05,10,01,50,14.30
2015,05,10,01,51,14.20
2015,05,10,01,52,14.20
2015,05,10,01,53,14.20
2015,05,10,01,54,14.10
2015,05,10,01,55,14.10
2015,05,10,01,56,14.00
2015,05,10,01,57,14.00
2015,05,10,01,58,14.00
2015,05,10,01,59,13.90
2015,05,10,02,00,13.90
2015,05,10,02,01,13.80
2015,05,10,02,02,13.80
2015,05,10,02,03,13.80
2015,05,10,02,04,13.70
2015,05,10,02,05,13.70
2015,05,10,02,06,13.70
2015,05,10,02,07,13.70
2015,05,10,02,08,13.60
2015,05,10,02,09,13.60
2015,05,10,02,10,13.60
2015,05,10,02,11,13.60
2015,05,10,02,12,13.60
2015,05,10,02,13,13.60
2015,05,10,02,14,13.60
2015,05,10,02,15,13.60
2015,05,10,02,16,13.70
2015,05,10,02,17,13.70
2015,05,10,02,18,13.70
2015,05,10,02,19,13.70
2015,05,10,02,20,13.70
2015,05,10,02,21,13.70
2015,05,10,02,22,13.70
2015,05,10,02,23,13.70
2015,05,10,02,24,13.70
2015,05,10,02,25,13.70
2015,05,10,02,26,13.70
2015,05,10,02,27,13.70
2015,05,10,02,28,13.70
2015,05,10,02,29,13.70
2015,05,10,02,30,13.70
2015,05,10,02,31,13.70
2015,05,10,02,32,13.70
2015,05,10,02,33,13.70
2015,05,10,02,34,13.70
2015,05,10,02,35,13.70
2015,05,10,02,36,13.80
2015,05,10,02,37,13.80
2015,05,10,02,38,13.80
2015,05,10,02,39,13.90
2015,05,10,02,40,13.90
2015,05,10,02,41,13.90
2015,05,10,02,42,14.00
2015,05,10,02,43,14.00
2015,05,10,02,44,14.00
2015,05,10,02,45,14.10
2015,05,10,02,46,14.10
2015,05,10,02,47,14.10
2015,05,10,02,48,14.00
2015,05,10,02,49,14.00
2015,05,10,02,50,14.00
2015,05,10,02,51,14.00
2015,05,10,02,52,14.00
2015,05,10,02,53,14.00
2015,05,10,02,54,14.00
2015,05,10,02,55,14.00
2015,05,10,02,56,14.00
2015,05,10,02,57,14.00
2015,05,10,02,58,14.10
2015,05,10,02,59,14.10
2015,05,10,03,00,14.10
2015,05,10,03,01,14.10
2015,05,10,03,02,14.10
2015,05,10,03,06,14.10
2015,05,10,03,07,14.00
2015,05,10,03,08,14.00
2015,05,10,03,09,13.90
2015,05,10,03,10,13.90
2015,05,10,03,11,13.90
2015,05,10,03,12,13.80
2015,05,10,03,13,13.80
2015,05,10,03,14,13.80
2015,05,10,03,15,13.70
2015,05,10,03,16,13.70
2015,05,10,03,17,13.70
2015,05,10,03,18,13.60
2015,05,10,03,19,13.60
2015,05,10,03,20,13.60
2015,05,10,03,21,13.60
2015,05,10,03,22,13.50
2015,05,10,03,23,13.50
2015,05,10,03,24,13.50
2015,05,10,03,25,13.50
2015,05,10,03,26,13.50
2015,05,10,03,27,13.40
2015,05,10,03,28,13.40
2015,05,10,03,29,13.40
2015,05,10,03,30,13.40
2015,05,10,03,31,13.40
2015,05,10,03,32,13.40
2015,05,10,03,33,13.40
2015,05,10,03,34,13.40
2015,05,10,03,35,13.40
2015,05,10,03,36,13.40
2015,05,10,03,37,13.40
2015,05,10,03,38,13.40
2015,05,10,03,39,13.40
2015,05,10,03,40,13.40
2015,05,10,03,41,13.40
2015,05,10,03,42,13.40
2015,05,10,03,43,13.40
2015,05,10,03,44,13.40
2015,05,10,03,45,13.30
2015,05,10,03,46,13.30
2015,05,10,03,47,13.30
2015,05,10,03,48,13.30
2015,05,10,03,49,13.30
2015,05,10,03,50,13.30
2015,05,10,03,51,13.30
2015,05,10,03,52,13.30
2015,05,10,03,53,13.30
2015,05,10,03,54,13.30
2015,05,10,03,55,13.30
2015,05,10,03,56,13.30
2015,05,10,03,57,13.30
2015,05,10,03,58,13.20
2015,05,10,03,59,13.20
2015,05,10,04,00,13.20
2015,05,10,04,01,13.20
2015,05,10,04,02,13.20
2015,05,10,04,03,13.20
2015,05,10,04,04,13.20
2015,05,10,04,05,13.20
2015,05,10,04,06,13.20
2015,05,10,04,07,13.10
2015,05,10,04,08,13.10
2015,05,10,04,09,13.10
2015,05,10,04,10,13.10
2015,05,10,04,11,13.10
2015,05,10,04,12,13.20
2015,05,10,04,13,13.20
2015,05,10,04,14,13.20
2015,05,10,04,15,13.30
2015,05,10,04,16,13.30
2015,05,10,04,17,13.30
2015,05,10,04,18,13.30
2015,05,10,04,19,13.40
2015,05,10,04,20,13.30
2015,05,10,04,21,13.30
2015,05,10,04,22,13.30
2015,05,10,04,23,13.30
2015,05,10,04,24,13.20
2015,05,10,04,25,13.20
2015,05,10,04,26,13.20
2015,05,10,04,27,13.20
2015,05,10,04,28,13.20
2015,05,10,04,29,13.20
2015,05,10,04,30,13.20
2015,05,10,04,31,13.20
2015,05,10,04,32,13.20
2015,05,10,04,33,13.20
2015,05,10,04,34,13.30
2015,05,10,04,35,13.30
2015,05,10,04,36,13.30
2015,05,10,04,37,13.30
2015,05,10,04,38,13.30
2015,05,10,04,39,13.20
2015,05,10,04,40,13.20
2015,05,10,04,41,13.20
2015,05,10,04,42,13.20
2015,05,10,04,43,13.20
2015,05,10,04,44,13.20
2015,05,10,04,45,13.20
2015,05,10,04,46,13.20
2015,05,10,04,47,13.20
2015,05,10,04,48,13.20
2015,05,10,04,49,13.20
2015,05,10,04,50,13.10
2015,05,10,04,51,13.10
2015,05,10,04,52,13.10
2015,05,10,04,53,13.10
2015,05,10,04,54,13.00
2015,05,10,04,55,13.00
2015,05,10,04,56,13.00
2015,05,10,04,57,13.00
2015,05,10,04,58,12.90
2015,05,10,04,59,12.90
2015,05,10,05,00,12.90
2015,05,10,05,01,12.80
2015,05,10,05,02,12.80
2015,05,10,05,03,12.80
2015,05,10,05,04,12.80
2015,05,10,05,05,12.80
2015,05,10,05,06,12.80
2015,05,10,05,07,12.80
2015,05,10,05,08,12.80
2015,05,10,05,09,12.80
2015,05,10,05,10,12.70
2015,05,10,05,11,12.70
2015,05,10,05,12,12.70
2015,05,10,05,13,12.70
2015,05,10,05,14,12.70
2015,05,10,05,15,12.70
2015,05,10,05,16,12.70
2015,05,10,05,17,12.70
2015,05,10,05,18,12.70
2015,05,10,05,19,12.70
2015,05,10,05,20,12.70
2015,05,10,05,21,12.70
2015,05,10,05,22,12.70
2015,05,10,05,23,12.70
2015,05,10,05,24,12.70
2015,05,10,05,25,12.70
2015,05,10,05,26,12.70
2015,05,10,05,27,12.70
2015,05,10,05,28,12.70
2015,05,10,05,29,12.70
2015,05,10,05,30,12.70
2015,05,10,05,31,12.70
2015,05,10,05,32,12.70
2015,05,10,05,33,12.70
2015,05,10,05,34,12.70
2015,05,10,05,35,12.70
2015,05,10,05,36,12.70
2015,05,10,05,37,12.70
2015,05,10,05,38,12.70
2015,05,10,05,39,12.70
2015,05,10,05,40,12.70
2015,05,10,05,41,12.70
2015,05,10,05,42,12.60
2015,05,10,05,43,12.60
2015,05,10,05,44,12.60
2015,05,10,05,45,12.60
2015,05,10,05,46,12.60
2015,05,10,05,47,12.60
2015,05,10,05,48,12.60
2015,05,10,05,49,12.50
2015,05,10,05,50,12.50
2015,05,10,05,51,12.50
2015,05,10,05,52,12.40
2015,05,10,05,53,12.40
2015,05,10,05,54,12.40
2015,05,10,05,55,12.40
2015,05,10,05,56,12.40
2015,05,10,05,57,12.40
2015,05,10,05,58,12.40
2015,05,10,05,59,12.40
2015,05,10,06,00,12.40
2015,05,10,06,01,12.40
2015,05,10,06,02,12.40
2015,05,10,06,03,12.40
2015,05,10,06,04,12.40
2015,05,10,06,05,12.30
2015,05,10,06,06,12.30
2015,05,10,06,07,12.30
2015,05,10,06,08,12.30
2015,05,10,06,09,12.30
2015,05,10,06,10,12.30
2015,05,10,06,11,12.30
2015,05,10,06,12,12.30
2015,05,10,06,13,12.30
2015,05,10,06,14,12.30
2015,05,10,06,15,12.30
2015,05,10,06,16,12.30
2015,05,10,06,17,12.30
2015,05,10,06,18,12.30
2015,05,10,06,19,12.30
2015,05,10,06,20,12.30
2015,05,10,06,21,12.30
2015,05,10,06,22,12.30
2015,05,10,06,23,12.30
2015,05,10,06,24,12.30
2015,05,10,06,25,12.30
2015,05,10,06,26,12.30
2015,05,10,06,27,12.30
2015,05,10,06,28,12.20
2015,05,10,06,29,12.30
2015,05,10,06,30,12.20
2015,05,10,06,31,12.20
2015,05,10,06,32,12.20
2015,05,10,06,33,12.20
2015,05,10,06,34,12.20
2015,05,10,06,35,12.30
2015,05,10,06,36,12.30
2015,05,10,06,37,12.30
2015,05,10,06,38,12.30
2015,05,10,06,39,12.30
2015,05,10,06,40,12.30
2015,05,10,06,41,12.30
2015,05,10,06,42,12.30
2015,05,10,06,43,12.30
2015,05,10,06,44,12.30
2015,05,10,06,45,12.30
2015,05,10,06,46,12.30
2015,05,10,06,47,12.30
2015,05,10,06,48,12.30
2015,05,10,06,49,12.30
2015,05,10,06,50,12.30
2015,05,10,06,51,12.30
2015,05,10,06,52,12.30
2015,05,10,06,53,12.30
2015,05,10,06,54,12.30
2015,05,10,06,55,12.30
2015,05,10,06,56,12.30
2015,05,10,06,57,12.30
2015,05,10,06,58,12.30
2015,05,10,06,59,12.30
2015,05,10,07,00,12.30
2015,05,10,07,01,12.30
2015,05,10,07,02,12.30
2015,05,10,07,03,12.30
2015,05,10,07,04,12.30
2015,05,10,07,05,12.30
2015,05,10,07,06,12.30
2015,05,10,07,07,12.30
2015,05,10,07,08,12.30
2015,05,10,07,09,12.30
2015,05,10,07,10,12.30
2015,05,10,07,11,12.30
2015,05,10,07,12,12.30
2015,05,10,07,13,12.30
2015,05,10,07,14,12.30
2015,05,10,07,15,12.30
2015,05,10,07,16,12.30
2015,05,10,07,17,12.30
2015,05,10,07,18,12.30
2015,05,10,07,19,12.30
2015,05,10,07,20,12.30
2015,05,10,07,21,12.30
2015,05,10,07,22,12.30
2015,05,10,07,23,12.30
2015,05,10,07,24,12.30
2015,05,10,07,25,12.30
2015,05,10,07,26,12.30
2015,05,10,07,27,12.30
2015,05,10,07,28,12.30
2015,05,10,07,29,12.30
2015,05,10,07,30,12.30
2015,05,10,07,31,12.30
2015,05,10,07,32,12.30
2015,05,10,07,33,12.30
2015,05,10,07,34,12.30
2015,05,10,07,35,12.30
2015,05,10,07,36,12.30
2015,05,10,07,37,12.30
2015,05,10,07,38,12.30
2015,05,10,07,39,12.30
2015,05,10,07,40,12.30
2015,05,10,07,41,12.40
2015,05,10,07,42,12.40
2015,05,10,07,43,12.40
2015,05,10,07,44,12.40
2015,05,10,07,45,12.50
2015,05,10,07,46,12.50
2015,05,10,07,47,12.50
2015,05,10,07,48,12.50
2015,05,10,07,49,12.50
2015,05,10,07,50,12.50
2015,05,10,07,51,12.50
2015,05,10,07,52,12.50
2015,05,10,07,53,12.50
2015,05,10,07,54,12.50
2015,05,10,07,55,12.50
2015,05,10,07,56,12.50
2015,05,10,07,57,12.60
2015,05,10,07,58,12.60
2015,05,10,07,59,12.60
2015,05,10,08,00,12.70
2015,05,10,08,01,12.70
2015,05,10,08,02,12.70
2015,05,10,08,03,12.70
2015,05,10,08,04,12.70
2015,05,10,08,05,12.70
2015,05,10,08,06,12.70
2015,05,10,08,07,12.80
2015,05,10,08,08,12.80
2015,05,10,08,09,12.80
2015,05,10,08,10,12.80
2015,05,10,08,11,12.90
2015,05,10,08,12,12.90
2015,05,10,08,13,12.90
2015,05,10,08,14,13.00
2015,05,10,08,15,13.00
2015,05,10,08,16,13.00
2015,05,10,08,17,13.00
2015,05,10,08,18,13.00
2015,05,10,08,19,13.10
2015,05,10,08,20,13.10
2015,05,10,08,21,13.10
2015,05,10,08,22,13.10
2015,05,10,08,23,13.10
2015,05,10,08,24,13.10
2015,05,10,08,25,13.00
2015,05,10,08,26,13.00
2015,05,10,08,27,12.90
2015,05,10,08,28,12.90
2015,05,10,08,29,12.90
2015,05,10,08,30,12.90
2015,05,10,08,31,12.90
2015,05,10,08,32,12.90
2015,05,10,08,33,13.00
2015,05,10,08,34,13.00
2015,05,10,08,35,13.10
2015,05,10,08,36,13.10
2015,05,10,08,37,13.20
2015,05,10,08,38,13.20
2015,05,10,08,39,13.30
2015,05,10,08,40,13.30
2015,05,10,08,41,13.30
2015,05,10,08,42,13.40
2015,05,10,08,43,13.40
2015,05,10,08,44,13.40
2015,05,10,08,45,13.40
2015,05,10,08,46,13.40
2015,05,10,08,47,13.40
2015,05,10,08,48,13.50
2015,05,10,08,49,13.50
2015,05,10,08,50,13.60
2015,05,10,08,51,13.70
2015,05,10,08,52,13.80
2015,05,10,08,53,13.80
2015,05,10,08,54,13.80
2015,05,10,08,55,13.80
2015,05,10,08,56,13.80
2015,05,10,08,57,13.80
2015,05,10,08,58,13.90
2015,05,10,08,59,13.90
2015,05,10,09,00,13.90
2015,05,10,09,01,13.90
2015,05,10,09,02,13.90
2015,05,10,09,03,13.90
2015,05,10,09,04,14.00
2015,05,10,09,05,14.00
2015,05,10,09,06,14.10
2015,05,10,09,07,14.10
2015,05,10,09,08,14.10
2015,05,10,09,09,14.10
2015,05,10,09,10,14.10
2015,05,10,09,11,14.10
2015,05,10,09,12,14.10
2015,05,10,09,13,14.10
2015,05,10,09,14,14.00
2015,05,10,09,15,14.00
2015,05,10,09,16,14.10
2015,05,10,09,17,14.10
2015,05,10,09,18,14.10
2015,05,10,09,19,14.20
2015,05,10,09,20,14.10
2015,05,10,09,21,14.10
2015,05,10,09,22,14.10
2015,05,10,09,23,14.00
2015,05,10,09,24,14.00
2015,05,10,09,25,14.00
2015,05,10,09,26,14.00
2015,05,10,09,27,14.00
2015,05,10,09,28,14.00
2015,05,10,09,29,14.10
2015,05,10,09,30,14.20
2015,05,10,09,31,14.30
2015,05,10,09,32,14.30
2015,05,10,09,33,14.40
2015,05,10,09,34,14.40
2015,05,10,09,35,14.50
2015,05,10,09,36,14.50
2015,05,10,09,37,14.50
2015,05,10,09,38,14.50
2015,05,10,09,39,14.50
2015,05,10,09,40,14.60
2015,05,10,09,41,14.60
2015,05,10,09,42,14.60
2015,05,10,09,43,14.50
2015,05,10,09,44,14.50
2015,05,10,09,45,14.50
2015,05,10,09,46,14.50
2015,05,10,09,47,14.50
2015,05,10,09,48,14.40
2015,05,10,09,49,14.40
2015,05,10,09,50,14.50
2015,05,10,09,51,14.50
2015,05,10,09,52,14.60
2015,05,10,09,53,14.60
2015,05,10,09,54,14.60
2015,05,10,09,55,14.60
2015,05,10,09,56,14.70
2015,05,10,09,57,14.70
2015,05,10,09,58,14.80
2015,05,10,09,59,15.00
2015,05,10,10,00,15.00
2015,05,10,10,01,15.00
2015,05,10,10,02,15.00
2015,05,10,10,03,15.00
2015,05,10,10,04,15.00
2015,05,10,10,05,15.00
2015,05,10,10,06,15.00
2015,05,10,10,07,15.00
2015,05,10,10,08,15.00
2015,05,10,10,09,15.00
2015,05,10,10,10,15.00
2015,05,10,10,11,15.00
2015,05,10,10,12,14.90
2015,05,10,10,13,14.90
2015,05,10,10,14,15.00
2015,05,10,10,15,15.00
2015,05,10,10,16,15.10
2015,05,10,10,17,15.10
2015,05,10,10,18,15.10
2015,05,10,10,19,15.00
2015,05,10,10,20,15.00
2015,05,10,10,21,15.00
2015,05,10,10,22,15.00
2015,05,10,10,23,15.10
2015,05,10,10,24,15.00
2015,05,10,10,25,15.00
2015,05,10,10,26,15.00
2015,05,10,10,27,15.00
2015,05,10,10,28,15.00
2015,05,10,10,29,15.00
2015,05,10,10,30,15.00
2015,05,10,10,31,15.00
2015,05,10,10,32,15.00
2015,05,10,10,33,15.00
2015,05,10,10,34,15.00
2015,05,10,10,35,15.00
2015,05,10,10,36,15.10
2015,05,10,10,37,15.20
2015,05,10,10,38,15.20
2015,05,10,10,39,15.10
2015,05,10,10,40,15.10
2015,05,10,10,41,15.10
2015,05,10,10,42,15.20
2015,05,10,10,43,15.30
2015,05,10,10,44,15.30
2015,05,10,10,45,15.30
2015,05,10,10,46,15.30
2015,05,10,10,47,15.40
2015,05,10,10,48,15.40
2015,05,10,10,49,15.40
2015,05,10,10,50,15.40
2015,05,10,10,51,15.40
2015,05,10,10,52,15.40
2015,05,10,10,53,15.50
2015,05,10,10,54,15.60
2015,05,10,10,55,15.70
2015,05,10,10,56,15.70
2015,05,10,10,57,15.70
2015,05,10,10,58,15.60
2015,05,10,10,59,15.60
2015,05,10,11,00,15.50
2015,05,10,11,01,15.50
2015,05,10,11,02,15.50
2015,05,10,11,03,15.50
2015,05,10,11,04,15.50
2015,05,10,11,05,15.60
2015,05,10,11,06,15.60
2015,05,10,11,07,15.70
2015,05,10,11,08,15.70
2015,05,10,11,09,15.70
2015,05,10,11,10,15.70
2015,05,10,11,11,15.70
2015,05,10,11,12,15.60
2015,05,10,11,13,15.50
2015,05,10,11,14,15.40
2015,05,10,11,15,15.30
2015,05,10,11,16,15.20
2015,05,10,11,17,15.00
2015,05,10,11,18,15.00
2015,05,10,11,19,15.00
2015,05,10,11,20,15.00
2015,05,10,11,21,15.00
2015,05,10,11,22,15.00
2015,05,10,11,23,15.10
2015,05,10,11,24,15.10
2015,05,10,11,25,15.00
2015,05,10,11,26,15.10
2015,05,10,11,27,15.10
2015,05,10,11,28,15.10
2015,05,10,11,29,15.20
2015,05,10,11,30,15.20
2015,05,10,11,31,15.30
2015,05,10,11,32,15.30
2015,05,10,11,33,15.40
2015,05,10,11,34,15.50
2015,05,10,11,35,15.50
2015,05,10,11,36,15.50
2015,05,10,11,37,15.50
2015,05,10,11,38,15.60
2015,05,10,11,39,15.60
2015,05,10,11,40,15.70
2015,05,10,11,41,15.70
2015,05,10,11,42,15.80
2015,05,10,11,43,15.80
2015,05,10,11,44,15.80
2015,05,10,11,45,15.80
2015,05,10,11,46,15.80
2015,05,10,11,47,15.80
2015,05,10,11,48,15.90
2015,05,10,11,49,15.90
2015,05,10,11,50,15.90
2015,05,10,11,51,16.00
2015,05,10,11,52,16.10
2015,05,10,11,53,16.20
2015,05,10,11,54,16.30
2015,05,10,11,55,16.30
2015,05,10,11,56,16.20
2015,05,10,11,57,16.10
2015,05,10,11,58,16.10
2015,05,10,11,59,16.10
2015,05,10,12,00,16.10
2015,05,10,12,01,16.10
2015,05,10,12,02,16.00
2015,05,10,12,03,15.90
2015,05,10,12,04,15.80
2015,05,10,12,05,15.80
2015,05,10,12,06,15.90
2015,05,10,12,07,15.90
2015,05,10,12,08,16.00
2015,05,10,12,09,16.10
2015,05,10,12,10,16.10
2015,05,10,12,11,16.10
2015,05,10,12,12,16.10
2015,05,10,12,13,16.10
2015,05,10,12,14,16.20
2015,05,10,12,15,16.30
2015,05,10,12,16,16.30
2015,05,10,12,17,16.30
2015,05,10,12,18,16.40
2015,05,10,12,19,16.40
2015,05,10,12,20,16.40
2015,05,10,12,21,16.40
2015,05,10,12,22,16.40
2015,05,10,12,23,16.40
2015,05,10,12,24,16.50
2015,05,10,12,25,16.60
2015,05,10,12,26,16.60
2015,05,10,12,27,16.60
2015,05,10,12,28,16.60
2015,05,10,12,29,16.60
2015,05,10,12,30,16.70
2015,05,10,12,31,16.60
2015,05,10,12,32,16.60
2015,05,10,12,33,16.70
2015,05,10,12,34,16.70
2015,05,10,12,35,16.70
2015,05,10,12,36,16.70
2015,05,10,12,37,16.70
2015,05,10,12,38,16.70
2015,05,10,12,39,16.70
2015,05,10,12,40,16.70
2015,05,10,12,41,16.80
2015,05,10,12,42,17.00
2015,05,10,12,43,17.00
2015,05,10,12,44,17.00
2015,05,10,12,45,17.00
2015,05,10,12,46,17.10
2015,05,10,12,47,17.10
2015,05,10,12,48,17.10
2015,05,10,12,49,17.20
2015,05,10,12,50,17.10
2015,05,10,12,51,17.10
2015,05,10,12,52,17.10
2015,05,10,12,53,17.10
2015,05,10,12,54,17.20
2015,05,10,12,55,17.30
2015,05,10,12,56,17.40
2015,05,10,12,57,17.50
2015,05,10,12,58,17.60
2015,05,10,12,59,17.60
2015,05,10,13,00,17.60
2015,05,10,13,01,17.60
2015,05,10,13,02,17.70
2015,05,10,13,03,17.80
2015,05,10,13,04,17.80
2015,05,10,13,05,17.80
2015,05,10,13,06,17.70
2015,05,10,13,07,17.70
2015,05,10,13,08,17.70
2015,05,10,13,09,17.70
2015,05,10,13,10,17.70
2015,05,10,13,11,17.70
2015,05,10,13,12,17.80
2015,05,10,13,13,17.80
2015,05,10,13,14,17.90
2015,05,10,13,15,17.90
2015,05,10,13,16,18.00
2015,05,10,13,17,18.00
2015,05,10,13,18,18.00
2015,05,10,13,19,18.10
2015,05,10,13,20,18.10
2015,05,10,13,21,18.10
2015,05,10,13,22,18.10
2015,05,10,13,23,18.00
2015,05,10,13,24,18.00
2015,05,10,13,25,18.00
2015,05,10,13,26,18.00
2015,05,10,13,27,18.00
2015,05,10,13,28,18.10
2015,05,10,13,29,18.10
2015,05,10,13,30,18.10
2015,05,10,13,31,18.10
2015,05,10,13,32,18.20
2015,05,10,13,33,18.20
2015,05,10,13,34,18.20
2015,05,10,13,35,18.20
2015,05,10,13,36,18.20
2015,05,10,13,37,18.10
2015,05,10,13,38,18.10
2015,05,10,13,39,18.10
2015,05,10,13,40,18.10
2015,05,10,13,41,18.10
2015,05,10,13,42,18.10
2015,05,10,13,43,18.00
2015,05,10,13,44,17.90
2015,05,10,13,45,17.80
2015,05,10,13,46,17.80
2015,05,10,13,47,17.80
2015,05,10,13,48,17.80
2015,05,10,13,49,17.90
2015,05,10,13,50,17.90
2015,05,10,13,51,18.00
2015,05,10,13,52,18.10
2015,05,10,13,53,18.10
2015,05,10,13,54,18.10
2015,05,10,13,55,18.10
2015,05,10,13,56,18.20
2015,05,10,13,57,18.30
2015,05,10,13,58,18.30
2015,05,10,13,59,18.30
2015,05,10,14,00,18.30
2015,05,10,14,01,18.20
2015,05,10,14,02,18.20
2015,05,10,14,03,18.10
2015,05,10,14,04,18.00
2015,05,10,14,05,17.80
2015,05,10,14,06,17.50
2015,05,10,14,07,17.30
2015,05,10,14,08,17.20
2015,05,10,14,09,17.10
2015,05,10,14,10,17.00
2015,05,10,14,11,16.90
2015,05,10,14,12,16.90
2015,05,10,14,13,16.90
2015,05,10,14,14,16.90
2015,05,10,14,15,16.90
2015,05,10,14,16,16.90
2015,05,10,14,17,16.90
2015,05,10,14,18,16.90
2015,05,10,14,19,16.90
2015,05,10,14,20,17.00
2015,05,10,14,21,17.00
2015,05,10,14,22,17.10
2015,05,10,14,23,17.20
2015,05,10,14,24,17.30
2015,05,10,14,25,17.30
2015,05,10,14,26,17.30
2015,05,10,14,27,17.40
2015,05,10,14,28,17.30
2015,05,10,14,29,17.30
2015,05,10,14,30,17.40
2015,05,10,14,31,17.40
2015,05,10,14,32,17.40
2015,05,10,14,33,17.40
2015,05,10,14,34,17.40
2015,05,10,14,35,17.30
2015,05,10,14,36,17.30
2015,05,10,14,37,17.20
2015,05,10,14,38,17.20
2015,05,10,14,39,17.20
2015,05,10,14,40,17.10
2015,05,10,14,41,17.10
2015,05,10,14,42,17.00
2015,05,10,14,43,17.00
2015,05,10,14,44,17.10
2015,05,10,14,45,17.20
2015,05,10,14,46,17.30
2015,05,10,14,47,17.40
2015,05,10,14,48,17.40
2015,05,10,14,49,17.50
2015,05,10,14,50,17.50
2015,05,10,14,51,17.40
2015,05,10,14,52,17.40
2015,05,10,14,53,17.40
2015,05,10,14,54,17.40
2015,05,10,14,55,17.40
2015,05,10,14,56,17.30
2015,05,10,14,57,17.20
2015,05,10,14,58,17.10
2015,05,10,14,59,17.10
2015,05,10,15,00,17.10
2015,05,10,15,01,17.10
2015,05,10,15,02,17.10
2015,05,10,15,03,17.10
2015,05,10,15,04,17.10
2015,05,10,15,05,17.20
2015,05,10,15,06,17.20
2015,05,10,15,07,17.20
2015,05,10,15,08,17.20
2015,05,10,15,09,17.20
2015,05,10,15,10,17.20
2015,05,10,15,11,17.10
2015,05,10,15,12,17.10
2015,05,10,15,13,17.00
2015,05,10,15,14,16.90
2015,05,10,15,15,16.90
2015,05,10,15,16,16.80
2015,05,10,15,17,16.90
2015,05,10,15,18,16.80
2015,05,10,15,19,16.90
2015,05,10,15,20,16.90
2015,05,10,15,21,17.00
2015,05,10,15,22,17.00
2015,05,10,15,23,17.00
2015,05,10,15,24,17.10
2015,05,10,15,25,17.10
2015,05,10,15,26,17.10
2015,05,10,15,27,17.20
2015,05,10,15,28,17.20
2015,05,10,15,29,17.30
2015,05,10,15,30,17.40
2015,05,10,15,31,17.40
2015,05,10,15,32,17.50
2015,05,10,15,33,17.50
2015,05,10,15,34,17.60
2015,05,10,15,35,17.70
2015,05,10,15,36,17.70
2015,05,10,15,37,17.70
2015,05,10,15,38,17.70
2015,05,10,15,39,17.70
2015,05,10,15,40,17.70
2015,05,10,15,41,17.70
2015,05,10,15,42,17.60
2015,05,10,15,43,17.60
2015,05,10,15,44,17.60
2015,05,10,15,45,17.60
2015,05,10,15,46,17.50
2015,05,10,15,47,17.50
2015,05,10,15,48,17.40
2015,05,10,15,49,17.40
2015,05,10,15,50,17.40
2015,05,10,15,51,17.40
2015,05,10,15,52,17.30
2015,05,10,15,53,17.30
2015,05,10,15,54,17.20
2015,05,10,15,55,17.20
2015,05,10,15,56,17.20
2015,05,10,15,57,17.20
2015,05,10,15,58,17.20
2015,05,10,15,59,17.30
2015,05,10,16,00,17.40
2015,05,10,16,01,17.40
2015,05,10,16,02,17.50
2015,05,10,16,03,17.60
2015,05,10,16,04,17.70
2015,05,10,16,05,17.80
2015,05,10,16,06,17.90
2015,05,10,16,07,18.00
2015,05,10,16,08,18.10
2015,05,10,16,09,18.10
2015,05,10,16,10,18.20
2015,05,10,16,11,18.20
2015,05,10,16,12,18.30
2015,05,10,16,13,18.30
2015,05,10,16,14,18.40
2015,05,10,16,15,18.40
2015,05,10,16,16,18.40
2015,05,10,16,17,18.40
2015,05,10,16,18,18.50
2015,05,10,16,19,18.40
2015,05,10,16,20,18.40
2015,05,10,16,21,18.40
2015,05,10,16,22,18.40
2015,05,10,16,23,18.40
2015,05,10,16,24,18.50
2015,05,10,16,25,18.50
2015,05,10,16,26,18.50
2015,05,10,16,27,18.60
2015,05,10,16,28,18.60
2015,05,10,16,29,18.60
2015,05,10,16,30,18.70
2015,05,10,16,31,18.70
2015,05,10,16,32,18.80
2015,05,10,16,33,18.80
2015,05,10,16,34,18.90
2015,05,10,16,35,19.00
2015,05,10,16,36,19.10
2015,05,10,16,37,19.20
2015,05,10,16,38,19.30
2015,05,10,16,39,19.30
2015,05,10,16,40,19.40
2015,05,10,16,41,19.40
2015,05,10,16,42,19.50
2015,05,10,16,43,19.50
2015,05,10,16,44,19.50
2015,05,10,16,45,19.50
2015,05,10,16,46,19.50
2015,05,10,16,47,19.50
2015,05,10,16,48,19.50
2015,05,10,16,49,19.50
2015,05,10,16,50,19.50
2015,05,10,16,51,19.60
2015,05,10,16,52,19.60
2015,05,10,16,53,19.70
2015,05,10,16,54,19.70
2015,05,10,16,55,19.70
2015,05,10,16,56,19.50
2015,05,10,16,57,19.50
2015,05,10,16,58,19.30
2015,05,10,16,59,19.30
2015,05,10,17,00,19.20
2015,05,10,17,01,19.20
2015,05,10,17,02,19.10
2015,05,10,17,03,19.10
2015,05,10,17,04,19.00
2015,05,10,17,05,19.00
2015,05,10,17,06,18.90
2015,05,10,17,07,18.90
2015,05,10,17,08,18.90
2015,05,10,17,09,18.90
2015,05,10,17,10,19.00
2015,05,10,17,11,19.00
2015,05,10,17,12,19.00
2015,05,10,17,13,19.10
2015,05,10,17,14,19.10
2015,05,10,17,15,19.10
2015,05,10,17,16,19.10
2015,05,10,17,17,19.10
2015,05,10,17,18,19.10
2015,05,10,17,19,19.10
2015,05,10,17,20,19.10
2015,05,10,17,21,19.10
2015,05,10,17,22,19.00